Other Public Products
Issued by NWS Charleston, SC

Current Version | Previous Version | Graphics & Text | Print | Product List | Glossary Off
Versions: 1 2 3 4 5 6 7 8 9 10 11 12 13 14 15 16 17 18 19 20 21 22 23 24 25 26 27 28 29 30 31 32 33 34 35 36 37 38 39 40 41 42 43 44 45 46 47 48 49 50

000
FPUS82 KCHS 152327
OPUCHS

TEST...KCHS/KSAV Gateway Observations...TEST
National Weather Service Charleston SC
600 PM EST FRI DEC 15 2017

NOTE: "fair" indicates few or no clouds below 12,000 feet with no
significant weather and/or obstructions to visibility.

SCZ050-WAZ558-NCZ071-TXZ119-213-PAZ071-DCZ001-FLZ074-172-MI076-
NYZ176-178-MAZ016-IL014-TNZ027-NJZ106-GAZ044-MD014-160000-

...Gateway Observations for Charleston International...

CITY           SKY/WX    TMP DP  RH WIND       PRES   REMARKS
Chas Airport   CLOUDY    56  42  59 SW7       30.01R
Seattle        CLOUDY    42  40  92 S8        30.17S
Charlotte      MOCLDY    41  30  65 N3        30.01R
Dallas DFW     PTCLDY    55  21  26 NW6       30.19F
Dallas Love    PTCLDY    54  24  31 CALM      30.21F
Philladelphia  FLURRIES  25  22  88 CALM      29.94S
Wash National  MOCLDY    29  24  82 W5        29.96S WCI  24
Baltimore      MOCLDY    25  24  96 W3        29.93S
Miami          MOCLDY    72  59  63 CALM      30.10R
Detroit        FLURRIES  29  18  63 SW16      29.86R WCI  17
Newark         LGT SNOW  23  20  88 W6        29.93F WCI  16
Laguardia      LGT SNOW  26  22  84 W5        29.92F VSB 1   WCI  20
J F K          LGT SNOW  25  23  92 W7        29.94F FOG     WCI  17
Boston Logan   CLOUDY    26  11  52 CALM      29.88F
Ft. Lauderdale PTCLDY    72  57  59 CALM      30.09R
Chicago O`Hare CLOUDY    33  21  61 SW8       29.89F WCI  26
Chicago Midway FLURRIES  34  21  59 SW13G22   29.91F WCI  25
Houston Bush   CLOUDY    53  36  52 VRB3      30.24F
Houston Hobby  MOCLDY    52  35  52 NE5       30.24S
Nashville      CLEAR     39  22  50 CALM      30.17R
Atlanta        MOCLDY    37  24  59 NW14      30.13R WCI  28

$$

GAZ044-118-TXZ119-213-NCZ071-DCZ001-MDZ014-506-PAZ021-071-NJZ106-
NYZ176-178-MAZ106-OHZ011-021-055-MIZ076-KYZ091-ILZ014-INZ047-
MNZ060-ONZ431-160000-

...Gateway Observations for Savannah International...

CITY           SKY/WX    TMP DP  RH WIND       PRES   REMARKS
Savannah Arpt  CLOUDY    55  42  61 W9        30.05R
Atlanta        MOCLDY    37  24  59 NW14      30.13R WCI  28
Charlotte      MOCLDY    41  30  65 N3        30.01R
Dallas DFW     PTCLDY    55  21  26 NW6       30.19F
Houston Bush   CLOUDY    53  36  52 VRB3      30.24F
Wash National  MOCLDY    29  24  82 W5        29.96S WCI  24
Wash Dulles    CLEAR     24  23  96 CALM      29.95R
Baltimore      MOCLDY    25  24  96 W3        29.93S
Philadelphia   FLURRIES  25  22  88 CALM      29.94S
Newark         LGT SNOW  23  20  88 W6        29.93F WCI  16
Laguardia      LGT SNOW  26  22  84 W5        29.92F VSB 1   WCI  20
J F K          LGT SNOW  25  23  92 W7        29.94F FOG     WCI  17
Boston         CLOUDY    26  11  52 CALM      29.88F
Pittsburg      FLURRIES  28  17  63 SW10G21   29.88R WCI  19
Akron          CLOUDY    26  17  68 W10       29.89R WCI  16
Cleveland      CLOUDY    27  18  69 W21       29.91R WCI  13
Cincinnati     CLOUDY    32  22  66 W13       30.05R WCI  22
Columbus       CLOUDY    29  20  67 W12       30.01R WCI  20
Detroit        FLURRIES  29  18  63 SW16      29.86R WCI  17
Chicago O`Hare CLOUDY    33  21  61 SW8       29.89F WCI  26
Minneapolis    CLOUDY    27  22  81 SE6       29.77F WCI  20
Indianapolis   MOCLDY    30  18  60 SW9       30.03R WCI  22
Toronto Canada FLURRIES  23  19  86 SW10      29.71S WCI  12

$$




USA.gov is the U.S. government's official web portal to all federal, state and local government web resources and services.